Waarnemingen

Advertentie
Mijn weer
Gourette, Frankrijk (7775): temperatuur & dauwpunt: 18.10.2017 00:00:00 - 24.10.2017 00:00:00 (CEST)Gourette, Frankrijk (7775): windsnelheid & windstoten: 18.10.2017 00:00:00 - 24.10.2017 00:00:00 (CEST)Gourette, Frankrijk (7775): windrichting: 18.10.2017 00:00:00 - 24.10.2017 00:00:00 (CEST)Gourette, Frankrijk (7775): luchtdruk: 18.10.2017 00:00:00 - 24.10.2017 00:00:00 (CEST)Gourette, Frankrijk (7775): zicht: 18.10.2017 00:00:00 - 24.10.2017 00:00:00 (CEST)Gourette, Frankrijk (7775): neerslag: 18.10.2017 00:00:00 - 24.10.2017 00:00:00 (CEST)
Datum & Tijd tt [°C] td [°C] ff [km/u] ff [kn] fx [km/u] fx [kn] dd ppp [hPa] vv [km] rr [mm]
24.10.2017 00:00:00 18,6 -4,8 8 5 13 7 W 1016,2 - 0,0
23.10.2017 23:00:00 18,8 -5,3 8 4 13 7 NW 1016,2 - 0,0
23.10.2017 22:00:00 18,3 -5,1 10 5 14 8 W 1015,9 - 0,0
23.10.2017 21:00:00 18,5 -4,9 4 2 10 5 NW 1015,6 - 0,0
23.10.2017 20:00:00 17,7 0,8 7 4 21 12 W 1015,6 - 0,0
23.10.2017 19:00:00 17,7 3,6 11 6 16 8 WZW 1015,0 - 0,0
23.10.2017 18:00:00 20,8 3,0 6 3 22 12 W 1014,6 - 0,0
23.10.2017 17:00:00 23,4 -3,1 14 7 37 20 N 1013,9 20 0,0
23.10.2017 16:00:00 24,4 -3,1 21 12 40 22 N 1013,5 - 0,0
23.10.2017 15:00:00 25,1 -0,2 26 14 40 22 NNO 1013,3 - 0,0
23.10.2017 14:00:00 25,5 2,8 22 12 38 21 NNO 1013,5 20 0,0
23.10.2017 13:00:00 24,3 -2,3 20 11 34 19 N 1014,0 - 0,0
23.10.2017 12:00:00 23,5 -2,2 21 11 45 25 N 1014,2 - 0,0
23.10.2017 11:00:00 22,6 1,0 8 4 17 9 NO 1014,4 20 0,0
23.10.2017 10:00:00 20,0 2,8 6 4 13 7 NNO 1014,6 - 0,0
23.10.2017 09:00:00 17,9 2,2 7 4 32 18 NW 1014,2 - 0,0
23.10.2017 08:00:00 16,3 1,6 11 6 17 9 WNW 1013,6 20 0,0
23.10.2017 07:00:00 16,3 3,0 13 7 30 16 NW 1013,5 - 0,0
23.10.2017 06:00:00 16,2 1,9 14 8 29 15 WNW 1013,3 - 0,0
23.10.2017 05:00:00 16,7 1,9 16 8 30 16 NW 1012,8 15 0,0
23.10.2017 04:00:00 16,6 2,2 16 9 30 16 NW 1012,6 - 0,0
23.10.2017 03:00:00 16,8 3,1 15 8 36 19 W 1012,5 - 0,0
23.10.2017 02:00:00 17,8 2,1 22 12 43 23 WNW 1012,0 - 0,0
23.10.2017 01:00:00 17,0 1,0 15 8 32 18 WNW 1011,5 - 0,0
23.10.2017 00:00:00 16,5 1,7 22 12 36 19 WZW 1011,3 - 0,0
22.10.2017 23:00:00 15,5 1,9 15 8 25 13 W 1011,7 - 0,0
22.10.2017 22:00:00 17,0 1,4 14 8 21 11 WZW 1011,5 - 0,0
22.10.2017 21:00:00 18,6 1,6 10 5 52 28 WNW 1011,5 - 0,0
22.10.2017 20:00:00 18,7 1,7 18 10 78 42 W 1011,0 - 0,0
22.10.2017 19:00:00 19,0 1,5 41 22 76 41 W 1010,4 - 0,0
22.10.2017 18:00:00 20,4 1,3 18 10 57 31 WZW 1010,3 - 0,0
22.10.2017 17:00:00 23,5 0,5 13 7 45 24 ZW 1009,7 20 0,0
22.10.2017 16:00:00 24,5 2,0 29 15 48 26 ZW 1010,1 - 0,0
22.10.2017 15:00:00 26,6 3,8 20 11 39 21 WZW 1010,7 - 0,0
22.10.2017 14:00:00 26,5 6,5 31 17 44 24 ZW 1011,5 - 0,0
22.10.2017 13:00:00 22,7 8,8 21 11 30 16 ZW 1013,4 - 0,0
22.10.2017 12:00:00 21,0 12,2 14 8 25 13 ZW 1014,3 - 0,0
22.10.2017 11:00:00 18,5 14,2 11 6 18 10 ZZW 1015,1 - 0,0
22.10.2017 10:00:00 18,5 13,6 9 5 20 11 Z 1015,4 - 0,0
22.10.2017 09:00:00 17,7 15,1 10 5 16 8 ZW 1015,6 - 0,0
22.10.2017 08:00:00 17,5 14,4 11 6 13 7 ZW 1015,9 - 0,0
22.10.2017 07:00:00 17,4 13,7 2 1 11 6 ZZW 1016,1 - 0,0
22.10.2017 06:00:00 17,7 14,8 8 5 12 6 N 1016,4 - 0,0
22.10.2017 05:00:00 17,9 15,9 8 4 10 5 WZW 1016,6 - 0,0
22.10.2017 04:00:00 18,1 15,0 4 2 9 5 W 1017,6 - 0,0
22.10.2017 03:00:00 18,0 15,3 4 2 14 7 NNW 1018,2 - 0,0
22.10.2017 02:00:00 17,7 14,0 8 5 11 6 N 1018,5 - 0,0
22.10.2017 01:00:00 18,1 14,0 8 4 11 6 N 1018,9 - 0,0
22.10.2017 00:00:00 17,5 13,6 5 3 13 7 NNO 1019,3 - 0,0
21.10.2017 23:00:00 18,2 14,7 6 4 12 6 NNW 1019,6 - 0,0
21.10.2017 22:00:00 18,3 15,0 5 3 11 6 NW 1019,8 - 0,0
21.10.2017 21:00:00 18,7 15,9 10 5 14 8 NNW 1019,7 - 0,0
21.10.2017 20:00:00 18,7 17,0 4 2 12 6 NW 1019,8 - 0,0
21.10.2017 19:00:00 19,5 16,9 8 5 11 6 NNO 1019,5 - 0,0
21.10.2017 18:00:00 20,5 17,3 5 3 11 6 O 1019,4 - 0,0
21.10.2017 17:00:00 21,7 17,7 8 4 13 7 OZO 1019,5 15 0,0
21.10.2017 16:00:00 22,5 17,4 7 4 20 11 O 1019,6 - 0,0
21.10.2017 15:00:00 23,3 18,2 10 6 19 11 OZO 1019,9 - 0,0
21.10.2017 14:00:00 23,4 18,1 10 6 19 11 OZO 1020,3 - 0,0
21.10.2017 13:00:00 23,5 17,9 13 7 23 13 ZO 1020,8 - 0,0
21.10.2017 12:00:00 22,3 17,7 11 6 21 12 ZZO 1021,2 - 0,0
21.10.2017 11:00:00 22,6 17,1 14 8 22 12 Z 1021,1 20 0,0
21.10.2017 10:00:00 21,1 16,1 15 8 20 11 ZZW 1021,1 - 0,0
21.10.2017 09:00:00 17,5 13,0 16 9 23 12 ZW 1021,1 - 0,0
21.10.2017 08:00:00 17,1 12,6 11 6 15 8 ZW 1020,8 18 0,0
21.10.2017 07:00:00 16,6 12,9 8 4 16 9 ZW 1020,4 - 0,2
21.10.2017 06:00:00 15,9 13,7 11 6 17 9 ZZW 1020,2 - 0,0
21.10.2017 05:00:00 16,9 13,2 11 6 18 10 ZZW 1019,9 16 0,0
21.10.2017 04:00:00 16,7 14,0 13 7 19 11 ZW 1019,8 - 0,0
21.10.2017 03:00:00 17,6 14,9 16 9 27 15 ZW 1020,0 - 0,0
21.10.2017 02:00:00 17,4 14,9 22 12 29 16 ZW 1020,2 - 0,0
21.10.2017 01:00:00 16,0 13,8 21 12 25 13 ZW 1020,4 - 0,0
21.10.2017 00:00:00 16,1 14,1 15 8 18 10 ZW 1020,5 - 0,0
20.10.2017 23:00:00 17,4 15,7 13 7 24 13 ZW 1020,4 - 0,0
20.10.2017 22:00:00 18,5 17,2 17 9 26 14 ZZW 1020,1 - 0,0
20.10.2017 21:00:00 18,7 17,2 19 11 29 15 ZZW 1019,8 - 0,0
20.10.2017 20:00:00 18,4 16,7 19 10 24 13 ZZW 1019,7 13 0,0
20.10.2017 19:00:00 19,2 17,2 18 10 26 14 ZZW 1019,5 - 0,0
20.10.2017 18:00:00 20,1 17,5 20 11 31 17 Z 1018,9 - 0,0
20.10.2017 17:00:00 20,7 17,7 18 10 34 18 Z 1018,5 13 0,0
20.10.2017 16:00:00 21,8 17,8 19 10 32 17 Z 1018,3 - 0,0
20.10.2017 15:00:00 22,4 18,0 17 9 32 17 Z 1018,2 - 0,0
20.10.2017 14:00:00 22,0 18,0 20 11 32 17 ZZO 1018,6 - 0,0
20.10.2017 13:00:00 22,5 17,2 19 10 29 15 ZZO 1018,8 - 0,2
20.10.2017 12:00:00 22,2 18,6 18 10 25 14 ZZW 1019,1 - 0,0
20.10.2017 11:00:00 19,0 18,0 13 7 16 9 ZZW 1019,0 12 0,0
20.10.2017 10:00:00 18,5 17,3 10 5 15 8 ZZW 1018,6 - 0,4
20.10.2017 09:00:00 18,5 17,3 9 5 25 14 ZZW 1018,4 - 1,2
20.10.2017 08:00:00 18,4 17,1 6 4 17 9 ZZW 1017,6 15 0,8
20.10.2017 07:00:00 18,4 17,1 10 5 27 14 Z 1016,8 - 1,4
20.10.2017 06:00:00 18,4 16,6 8 4 24 13 Z 1016,6 - 2,9
20.10.2017 05:00:00 18,6 16,4 8 4 13 7 Z 1016,4 15 0,0
20.10.2017 04:00:00 17,8 15,8 10 5 15 8 ZW 1016,4 - 0,0
20.10.2017 03:00:00 17,7 16,6 13 7 19 10 ZW 1016,8 - 0,0
20.10.2017 02:00:00 17,5 16,4 15 8 19 11 ZW 1016,9 - 0,0
20.10.2017 01:00:00 17,7 16,4 16 9 21 11 ZZW 1016,7 - 0,0
20.10.2017 00:00:00 17,8 16,1 14 7 25 14 ZW 1016,6 - 0,0
19.10.2017 23:00:00 19,0 17,0 15 8 23 12 Z 1016,6 - 0,0
19.10.2017 22:00:00 18,8 16,4 14 8 36 19 ZZW 1016,6 - 0,0
19.10.2017 21:00:00 19,4 16,6 17 9 36 20 Z 1016,2 - 0,0
19.10.2017 20:00:00 19,4 16,2 22 12 38 20 ZZO 1016,2 - 0,0
19.10.2017 19:00:00 19,6 16,2 20 11 37 20 ZZO 1015,9 - 0,0
19.10.2017 18:00:00 19,9 16,3 21 11 36 19 ZZO 1015,9 - 0,0
19.10.2017 17:00:00 20,1 16,1 23 13 42 23 ZZO 1015,7 25 0,0
19.10.2017 16:00:00 21,8 16,5 23 12 40 22 ZZO 1015,7 - 0,0
19.10.2017 15:00:00 22,6 16,4 24 13 44 24 ZZO 1016,1 - 0,0
19.10.2017 14:00:00 22,4 16,2 24 13 39 21 ZZO 1016,6 - 0,0
19.10.2017 13:00:00 22,6 16,4 23 13 37 20 ZO 1017,1 - 0,0
19.10.2017 12:00:00 22,6 15,7 20 11 29 16 ZZO 1017,4 - 0,0
19.10.2017 11:00:00 22,3 15,4 16 9 28 15 Z 1017,2 20 0,0
19.10.2017 10:00:00 20,9 15,2 18 10 27 15 ZZW 1017,3 - 0,0
19.10.2017 09:00:00 18,2 15,1 19 11 27 15 ZW 1017,2 - 0,0
19.10.2017 08:00:00 16,7 13,8 20 11 29 16 ZW 1017,1 20 0,0
19.10.2017 07:00:00 15,9 12,8 13 7 23 12 ZW 1017,0 - 0,0
19.10.2017 06:00:00 16,4 13,1 16 9 23 12 ZW 1017,2 - 0,2
19.10.2017 05:00:00 16,3 13,4 19 10 23 12 ZW 1017,0 - 0,0
19.10.2017 04:00:00 16,2 13,7 19 10 23 12 ZW 1017,1 - 0,0
19.10.2017 03:00:00 16,2 14,0 17 9 20 11 ZW 1017,7 - 0,0
19.10.2017 02:00:00 16,5 14,3 18 10 23 12 ZW 1017,9 - 0,0
19.10.2017 01:00:00 16,6 14,6 16 9 23 12 ZW 1018,0 - 0,0
19.10.2017 00:00:00 16,7 14,7 17 9 19 10 ZW 1018,3 - 0,0
18.10.2017 23:00:00 17,4 15,4 16 9 21 12 ZZW 1018,5 - 0,0
18.10.2017 22:00:00 17,7 15,3 16 9 21 12 ZZW 1018,2 - 0,0
18.10.2017 21:00:00 18,9 15,8 14 8 21 11 ZZW 1018,1 - 0,0
18.10.2017 20:00:00 18,8 15,7 14 7 21 11 ZZW 1018,1 - 0,0
18.10.2017 19:00:00 19,3 15,8 14 8 21 11 Z 1017,9 - 0,0
18.10.2017 18:00:00 19,9 15,7 14 8 26 14 Z 1017,7 - 0,0
18.10.2017 17:00:00 20,4 16,0 17 9 30 16 Z 1017,8 15 0,0
18.10.2017 16:00:00 21,2 15,9 18 10 33 18 Z 1017,8 - 0,0
18.10.2017 15:00:00 22,5 16,5 22 12 35 19 ZZO 1018,3 - 0,0
18.10.2017 14:00:00 22,3 16,3 20 11 32 17 ZZO 1018,9 - 0,0
18.10.2017 13:00:00 22,5 15,6 18 10 29 16 ZO 1019,5 - 0,0
18.10.2017 12:00:00 22,7 14,8 11 6 23 12 ZZO 1020,0 - 0,0
18.10.2017 11:00:00 22,4 14,3 14 8 22 12 ZZW 1020,1 15 0,0
18.10.2017 10:00:00 20,9 14,3 11 6 18 10 ZZW 1020,5 - 0,0
18.10.2017 09:00:00 17,8 13,5 9 5 12 6 ZW 1020,6 - 0,0
18.10.2017 08:00:00 16,5 12,6 8 5 12 7 ZW 1020,4 15 0,0
18.10.2017 07:00:00 16,3 13,2 11 6 14 8 ZW 1020,5 - 0,0
18.10.2017 06:00:00 16,2 13,1 12 7 15 8 ZW 1020,5 - 0,0
18.10.2017 05:00:00 16,4 11,5 12 6 15 8 ZW 1020,9 - 0,0
18.10.2017 04:00:00 16,0 10,7 13 7 16 9 ZW 1021,1 - 0,0
18.10.2017 03:00:00 15,6 10,1 13 7 17 9 ZW 1021,4 - 0,0
18.10.2017 02:00:00 15,2 10,8 15 8 19 11 ZW 1021,8 - 0,0
18.10.2017 01:00:00 15,2 12,3 18 10 20 11 ZW 1021,9 - 0,0
18.10.2017 00:00:00 15,5 11,9 19 10 20 11 ZW 1022,4 - 0,0

tt = temperatuur
td = dauwpunt
ff = windsnelheid
fx = windstoten
dd = windrichting
ppp = luchtdruk
vv = zicht
rr = neerslag

Weerstations in de omgeving